This is the latest recevied weather packets stored in our database for station/object WV8BRW. If no packets are shown the sender has not sent any weather packets the latest 10 day(s).
| Time | Temp. | Humidity | Pressure | Rain* | Wind** | Luminosity | Snow |
|---|---|---|---|---|---|---|---|
| 1777403787 | 23.89° C | 76% | 1013.1 hPa | 0 mm | - | 321 W/m² | - |
| 1777403485 | 23.33° C | 74% | 1013.3 hPa | 0 mm | - | 952 W/m² | - |
| 1777403180 | 23.33° C | 78% | 1013.4 hPa | 0 mm | - | 310 W/m² | - |
| 1777402875 | 23.89° C | 75% | 1013.5 hPa | 0 mm | - | 241 W/m² | - |
| 1777402572 | 23.89° C | 76% | 1013.3 hPa | 0 mm | - | 999 W/m² | - |
| 1777402270 | 22.78° C | 80% | 1013.4 hPa | 0 mm | - | 1008 W/m² | - |
| 1777401964 | 22.22° C | 80% | 1013.5 hPa | 0 mm | - | 211 W/m² | - |
| 1777401663 | 22.78° C | 78% | 1013.4 hPa | 0 mm | - | 168 W/m² | - |
| 1777401361 | 22.78° C | 79% | 1013.4 hPa | 0 mm | - | 215 W/m² | - |
| 1777401056 | 22.78° C | 82% | 1013.4 hPa | 0 mm | - | 541 W/m² | - |
| 1777400751 | 23.89° C | 79% | 1013.5 hPa | 0 mm | - | 973 W/m² | - |
| 1777400449 | 23.33° C | 78% | 1013.4 hPa | 0 mm | - | 285 W/m² | - |
| 1777400144 | 23.33° C | 78% | 1013.6 hPa | 0 mm | - | 1006 W/m² | - |
| 1777399842 | 23.33° C | 81% | 1013.6 hPa | 0 mm | - | 907 W/m² | - |
| 1777399538 | 22.22° C | 84% | 1013.7 hPa | 0 mm | - | 845 W/m² | - |
| 1777399236 | 22.22° C | 84% | 1013.6 hPa | 0 mm | - | 369 W/m² | - |
| 1777398934 | 21.67° C | 84% | 1013.7 hPa | 0 mm | - | 319 W/m² | - |
| 1777398630 | 21.67° C | 84% | 1013.8 hPa | 0 mm | - | 354 W/m² | - |
| 1777398327 | 21.67° C | 84% | 1013.8 hPa | 0 mm | - | 257 W/m² | - |
| 1777398024 | 22.22° C | 87% | 1014 hPa | 0 mm | - | 331 W/m² | - |
| 1777397721 | 21.67° C | 86% | 1013.9 hPa | 0 mm | - | 296 W/m² | - |
| 1777397417 | 21.11° C | 89% | 1013.8 hPa | 0 mm | - | 318 W/m² | - |
| 1777397113 | 20.56° C | 88% | 1013.9 hPa | 0 mm | - | 230 W/m² | - |
| 1777396810 | 20.56° C | 91% | 1014.1 hPa | 0 mm | - | 166 W/m² | - |
| 1777396506 | 20.56° C | 91% | 1014 hPa | 0 mm | - | 122 W/m² | - |
* Rain latest hour (hover to see other rain measurements)
** Current wind speed in m/s (hover to see current wind gust speed)